Torna al catalogo

FENGYUN 1C DEB

AttivoSSO
NORAD 29992·DEBRIS·🇨🇳 China

Lanciato May 10, 1999 da Taiyuan Satellite Launch Center

Loading…

Prossimi Passaggi (prossime 24 ore)

TLE

AggiornatoSource: Space-Track

Epoca: Sep 14, 2026, 17:27 UTC

1 29992U 99025LS  26257.72742978  .00000099  00000-0  74755-4 0  9994
2 29992  98.7470 250.7377 0089699 104.3788  69.7396 14.11705139 12815

Traccia FENGYUN 1C DEB in tempo reale con AllMySat

Download on the App Store